{"data":{"norad_id":59317,"intl_designator":"2024-056X","name":"STARLINK-31349","alt_names":[],"object_type":"PAYLOAD","status":"ACTIVE","operator":null,"country":"US","launch_date":"2024-03-24","launch_site_code":"AFETR","launch_vehicle":null,"mission":null,"orbit_class":"UNKNOWN","rcs_meters":null,"size_class":null,"mass_kg":null,"dimensions":null,"purposes":["comms"],"wikipedia_slug":null,"has_3d_model":false,"image_url":null,"decayed_at":null,"tle_current":{"epoch":"2026-09-21T06:00:33.297696Z","epoch_age_seconds":97489,"freshness":"FRESH","line1":"1 59317U 24056X   26264.25038539  .00000642  00000+0  32854-4 0  9994","line2":"2 59317  43.0007 206.2109 0001259 268.8205  91.2503 15.27578817141130","mean_motion":15.27578817,"eccentricity":0.0001259,"inclination_deg":43.0007,"raan_deg":206.2109,"arg_perigee_deg":268.8205,"mean_anomaly_deg":91.2503,"bstar":3.2854e-5,"rev_number":14113,"period_min":94.266821716473,"perigee_km":482.18881459405,"apogee_km":483.91646214499,"semimajor_km":6861.1896383695,"source":"CELESTRAK","updated_at":"2026-09-22T09:00:48.897276Z"}}}